owner,sensor,date,latitude,longitude,vertical_datum,mass_concentration_of_oxygen_in_sea_water,qcFlag 
LUMCON,ioos:station:LUMCON:101:1,2019-01-01T00:00:00Z,29.2533,-90.6633,1.963,8.26,1111122 
LUMCON,ioos:station:LUMCON:101:1,2019-01-01T00:15:00Z,29.2533,-90.6633,1.95,8.19,1111122 
LUMCON,ioos:station:LUMCON:101:1,2019-01-01T00:30:00Z,29.2533,-90.6633,1.944,8.18,1111122 
LUMCON,ioos:station:LUMCON:101:1,2019-01-01T00:45:00Z,29.2533,-90.6633,1.949,8.12,1111122 
LUMCON,ioos:station:LUMCON:101:1,2019-01-01T01:00:00Z,29.2533,-90.6633,1.951,8.08,1111122 
LUMCON,ioos:station:LUMCON:101:1,2019-01-01T01:15:00Z,29.2533,-90.6633,1.955,7.94,1111122 
LUMCON,ioos:station:LUMCON:101:1,2019-01-01T01:30:00Z,29.2533,-90.6633,1.951,7.83,1111122 
LUMCON,ioos:station:LUMCON:101:1,2019-01-01T01:45:00Z,29.2533,-90.6633,1.948,7.84,1111122 
LUMCON,ioos:station:LUMCON:101:1,2019-01-01T02:00:00Z,29.2533,-90.6633,1.96,7.65,1111122 
LUMCON,ioos:station:LUMCON:101:1,2019-01-01T02:15:00Z,29.2533,-90.6633,1.967,7.5,1111122 
LUMCON,ioos:station:LUMCON:101:1,2019-01-01T02:30:00Z,29.2533,-90.6633,1.975,7.47,1111122 
LUMCON,ioos:station:LUMCON:101:1,2019-01-01T02:45:00Z,29.2533,-90.6633,1.977,7.79,1111122 
LUMCON,ioos:station:LUMCON:101:1,2019-01-01T03:00:00Z,29.2533,-90.6633,1.982,7.88,1111122 
LUMCON,ioos:station:LUMCON:101:1,2019-01-01T03:15:00Z,29.2533,-90.6633,1.984,7.81,1111122 
LUMCON,ioos:station:LUMCON:101:1,2019-01-01T03:30:00Z,29.2533,-90.6633,1.984,7.78,1111122 
LUMCON,ioos:station:LUMCON:101:1,2019-01-01T03:45:00Z,29.2533,-90.6633,1.983,7.68,1111122 
LUMCON,ioos:station:LUMCON:101:1,2019-01-01T04:00:00Z,29.2533,-90.6633,1.964,7.84,1111122 
LUMCON,ioos:station:LUMCON:101:1,2019-01-01T04:15:00Z,29.2533,-90.6633,1.94,7.85,1111122 
LUMCON,ioos:station:LUMCON:101:1,2019-01-01T04:30:00Z,29.2533,-90.6633,1.928,7.64,1111122 
LUMCON,ioos:station:LUMCON:101:1,2019-01-01T04:45:00Z,29.2533,-90.6633,1.918,7.51,1111122 
LUMCON,ioos:station:LUMCON:101:1,2019-01-01T05:00:00Z,29.2533,-90.6633,1.921,7.29,1111122 
LUMCON,ioos:station:LUMCON:101:1,2019-01-01T05:15:00Z,29.2533,-90.6633,1.923,7.12,1111122 
LUMCON,ioos:station:LUMCON:101:1,2019-01-01T05:30:00Z,29.2533,-90.6633,1.924,7.05,1111122 
LUMCON,ioos:station:LUMCON:101:1,2019-01-01T05:45:00Z,29.2533,-90.6633,1.913,6.93,1111122 
LUMCON,ioos:station:LUMCON:101:1,2019-01-01T06:00:00Z,29.2533,-90.6633,1.91,6.77,1111122 
LUMCON,ioos:station:LUMCON:101:1,2019-01-01T06:15:00Z,29.2533,-90.6633,1.91,6.94,1111122 
LUMCON,ioos:station:LUMCON:101:1,2019-01-01T06:30:00Z,29.2533,-90.6633,1.891,6.87,1111122 
LUMCON,ioos:station:LUMCON:101:1,2019-01-01T06:45:00Z,29.2533,-90.6633,1.884,6.78,1111122 
LUMCON,ioos:station:LUMCON:101:1,2019-01-01T07:00:00Z,29.2533,-90.6633,1.871,6.9,1111122 
LUMCON,ioos:station:LUMCON:101:1,2019-01-01T07:15:00Z,29.2533,-90.6633,1.857,6.56,1111122 
LUMCON,ioos:station:LUMCON:101:1,2019-01-01T07:30:00Z,29.2533,-90.6633,1.845,6.72,1111122 
LUMCON,ioos:station:LUMCON:101:1,2019-01-01T07:45:00Z,29.2533,-90.6633,1.839,6.53,1111122 
LUMCON,ioos:station:LUMCON:101:1,2019-01-01T08:00:00Z,29.2533,-90.6633,1.83,6.57,1111122 
LUMCON,ioos:station:LUMCON:101:1,2019-01-01T08:15:00Z,29.2533,-90.6633,1.82,6.6,1111122 
LUMCON,ioos:station:LUMCON:101:1,2019-01-01T08:30:00Z,29.2533,-90.6633,1.807,6.54,1111122 
LUMCON,ioos:station:LUMCON:101:1,2019-01-01T08:45:00Z,29.2533,-90.6633,1.788,6.45,1111122 
LUMCON,ioos:station:LUMCON:101:1,2019-01-01T09:00:00Z,29.2533,-90.6633,1.775,6.53,1111122 
LUMCON,ioos:station:LUMCON:101:1,2019-01-01T09:15:00Z,29.2533,-90.6633,1.759,6.59,1111122 
LUMCON,ioos:station:LUMCON:101:1,2019-01-01T09:30:00Z,29.2533,-90.6633,1.751,6.52,1111122 
LUMCON,ioos:station:LUMCON:101:1,2019-01-01T09:45:00Z,29.2533,-90.6633,1.745,6.54,1111122 
LUMCON,ioos:station:LUMCON:101:1,2019-01-01T10:00:00Z,29.2533,-90.6633,1.736,6.64,1111122 
LUMCON,ioos:station:LUMCON:101:1,2019-01-01T10:15:00Z,29.2533,-90.6633,1.73,6.52,1111122 
LUMCON,ioos:station:LUMCON:101:1,2019-01-01T10:30:00Z,29.2533,-90.6633,1.717,6.58,1111122 
LUMCON,ioos:station:LUMCON:101:1,2019-01-01T10:45:00Z,29.2533,-90.6633,1.71,6.51,1111122 
LUMCON,ioos:station:LUMCON:101:1,2019-01-01T11:00:00Z,29.2533,-90.6633,1.704,6.61,1111122 
LUMCON,ioos:station:LUMCON:101:1,2019-01-01T11:15:00Z,29.2533,-90.6633,1.695,6.51,1111122 
LUMCON,ioos:station:LUMCON:101:1,2019-01-01T11:30:00Z,29.2533,-90.6633,1.685,6.52,1111122 
LUMCON,ioos:station:LUMCON:101:1,2019-01-01T11:45:00Z,29.2533,-90.6633,1.68,6.45,1111122 
LUMCON,ioos:station:LUMCON:101:1,2019-01-01T12:00:00Z,29.2533,-90.6633,1.673,6.43,1111122 
LUMCON,ioos:station:LUMCON:101:1,2019-01-01T12:15:00Z,29.2533,-90.6633,1.667,6.58,1111122 
LUMCON,ioos:station:LUMCON:101:1,2019-01-01T12:30:00Z,29.2533,-90.6633,1.659,6.56,1111122 
LUMCON,ioos:station:LUMCON:101:1,2019-01-01T12:45:00Z,29.2533,-90.6633,1.658,6.5,1111122 
LUMCON,ioos:station:LUMCON:101:1,2019-01-01T13:00:00Z,29.2533,-90.6633,1.657,6.54,1111122 
LUMCON,ioos:station:LUMCON:101:1,2019-01-01T13:15:00Z,29.2533,-90.6633,1.656,6.39,1111122 
LUMCON,ioos:station:LUMCON:101:1,2019-01-01T13:30:00Z,29.2533,-90.6633,1.657,6.53,1111122 
LUMCON,ioos:station:LUMCON:101:1,2019-01-01T13:45:00Z,29.2533,-90.6633,1.664,6.43,1111122 
LUMCON,ioos:station:LUMCON:101:1,2019-01-01T14:00:00Z,29.2533,-90.6633,1.672,6.49,1111122 
LUMCON,ioos:station:LUMCON:101:1,2019-01-01T14:15:00Z,29.2533,-90.6633,1.672,6.47,1111122 
LUMCON,ioos:station:LUMCON:101:1,2019-01-01T14:30:00Z,29.2533,-90.6633,1.671,6.57,1111122 
LUMCON,ioos:station:LUMCON:101:1,2019-01-01T14:45:00Z,29.2533,-90.6633,1.669,6.45,1111122 
LUMCON,ioos:station:LUMCON:101:1,2019-01-01T15:00:00Z,29.2533,-90.6633,1.667,6.33,1111122 
LUMCON,ioos:station:LUMCON:101:1,2019-01-01T15:15:00Z,29.2533,-90.6633,1.672,6.36,1111122 
LUMCON,ioos:station:LUMCON:101:1,2019-01-01T15:30:00Z,29.2533,-90.6633,1.675,6.09,1111122 
LUMCON,ioos:station:LUMCON:101:1,2019-01-01T15:45:00Z,29.2533,-90.6633,1.693,6.35,1111122 
LUMCON,ioos:station:LUMCON:101:1,2019-01-01T16:00:00Z,29.2533,-90.6633,1.705,6.38,1111122 
LUMCON,ioos:station:LUMCON:101:1,2019-01-01T16:15:00Z,29.2533,-90.6633,1.719,6.5,1111122 
LUMCON,ioos:station:LUMCON:101:1,2019-01-01T16:30:00Z,29.2533,-90.6633,1.727,6.66,1111122 
LUMCON,ioos:station:LUMCON:101:1,2019-01-01T16:45:00Z,29.2533,-90.6633,1.741,6.68,1111122 
LUMCON,ioos:station:LUMCON:101:1,2019-01-01T17:00:00Z,29.2533,-90.6633,1.757,6.89,1111122 
LUMCON,ioos:station:LUMCON:101:1,2019-01-01T17:15:00Z,29.2533,-90.6633,1.768,6.78,1111122 
LUMCON,ioos:station:LUMCON:101:1,2019-01-01T17:30:00Z,29.2533,-90.6633,1.783,6.94,1111122 
LUMCON,ioos:station:LUMCON:101:1,2019-01-01T17:45:00Z,29.2533,-90.6633,1.792,6.72,1111122 
LUMCON,ioos:station:LUMCON:101:1,2019-01-01T18:00:00Z,29.2533,-90.6633,1.802,7.0,1111122 
LUMCON,ioos:station:LUMCON:101:1,2019-01-01T18:15:00Z,29.2533,-90.6633,1.806,7.08,1111122 
LUMCON,ioos:station:LUMCON:101:1,2019-01-01T18:30:00Z,29.2533,-90.6633,1.817,7.1,1111122 
LUMCON,ioos:station:LUMCON:101:1,2019-01-01T18:45:00Z,29.2533,-90.6633,1.828,7.24,1111122 
LUMCON,ioos:station:LUMCON:101:1,2019-01-01T19:00:00Z,29.2533,-90.6633,1.839,7.39,1111122 
LUMCON,ioos:station:LUMCON:101:1,2019-01-01T19:15:00Z,29.2533,-90.6633,1.855,7.36,1111122 
LUMCON,ioos:station:LUMCON:101:1,2019-01-01T19:30:00Z,29.2533,-90.6633,1.863,7.21,1111122 
LUMCON,ioos:station:LUMCON:101:1,2019-01-01T19:45:00Z,29.2533,-90.6633,1.868,7.16,1111122 
LUMCON,ioos:station:LUMCON:101:1,2019-01-01T20:00:00Z,29.2533,-90.6633,1.872,7.38,1111122 
LUMCON,ioos:station:LUMCON:101:1,2019-01-01T20:15:00Z,29.2533,-90.6633,1.884,7.44,1111122 
LUMCON,ioos:station:LUMCON:101:1,2019-01-01T20:30:00Z,29.2533,-90.6633,1.895,7.51,1111122 
LUMCON,ioos:station:LUMCON:101:1,2019-01-01T20:45:00Z,29.2533,-90.6633,1.901,7.47,1111122 
LUMCON,ioos:station:LUMCON:101:1,2019-01-01T21:00:00Z,29.2533,-90.6633,1.907,7.68,1111122 
LUMCON,ioos:station:LUMCON:101:1,2019-01-01T21:15:00Z,29.2533,-90.6633,1.912,7.69,1111122 
LUMCON,ioos:station:LUMCON:101:1,2019-01-01T21:30:00Z,29.2533,-90.6633,1.919,7.8,1111122 
LUMCON,ioos:station:LUMCON:101:1,2019-01-01T21:45:00Z,29.2533,-90.6633,1.926,7.8,1111122 
LUMCON,ioos:station:LUMCON:101:1,2019-01-01T22:00:00Z,29.2533,-90.6633,1.935,8.03,1111122 
LUMCON,ioos:station:LUMCON:101:1,2019-01-01T22:15:00Z,29.2533,-90.6633,1.934,8.03,1111122 
LUMCON,ioos:station:LUMCON:101:1,2019-01-01T22:30:00Z,29.2533,-90.6633,1.938,7.83,1111122 
LUMCON,ioos:station:LUMCON:101:1,2019-01-01T22:45:00Z,29.2533,-90.6633,1.951,7.99,1111122 
LUMCON,ioos:station:LUMCON:101:1,2019-01-01T23:00:00Z,29.2533,-90.6633,1.956,7.93,1111122 
LUMCON,ioos:station:LUMCON:101:1,2019-01-01T23:15:00Z,29.2533,-90.6633,1.961,8.11,1111122 
LUMCON,ioos:station:LUMCON:101:1,2019-01-01T23:30:00Z,29.2533,-90.6633,1.954,8.16,1111122 
LUMCON,ioos:station:LUMCON:101:1,2019-01-01T23:45:00Z,29.2533,-90.6633,1.95,8.17,1111122 
LUMCON,ioos:station:LUMCON:101:1,2019-01-02T00:00:00Z,29.2533,-90.6633,1.958,7.98,1111122 
LUMCON,ioos:station:LUMCON:101:1,2019-01-02T00:15:00Z,29.2533,-90.6633,1.964,7.65,1111122 
LUMCON,ioos:station:LUMCON:101:1,2019-01-02T00:30:00Z,29.2533,-90.6633,1.955,7.52,1111122 
LUMCON,ioos:station:LUMCON:101:1,2019-01-02T00:45:00Z,29.2533,-90.6633,1.951,8.22,1111122 
LUMCON,ioos:station:LUMCON:101:1,2019-01-02T01:00:00Z,29.2533,-90.6633,1.948,8.23,1111122 
LUMCON,ioos:station:LUMCON:101:1,2019-01-02T01:15:00Z,29.2533,-90.6633,1.954,7.85,1111122 
LUMCON,ioos:station:LUMCON:101:1,2019-01-02T01:30:00Z,29.2533,-90.6633,1.955,7.67,1111122 
LUMCON,ioos:station:LUMCON:101:1,2019-01-02T01:45:00Z,29.2533,-90.6633,1.952,7.71,1111122 
LUMCON,ioos:station:LUMCON:101:1,2019-01-02T02:00:00Z,29.2533,-90.6633,1.951,7.62,1111122 
LUMCON,ioos:station:LUMCON:101:1,2019-01-02T02:15:00Z,29.2533,-90.6633,1.943,7.84,1111122 
LUMCON,ioos:station:LUMCON:101:1,2019-01-02T02:30:00Z,29.2533,-90.6633,1.954,7.55,1111122 
LUMCON,ioos:station:LUMCON:101:1,2019-01-02T02:45:00Z,29.2533,-90.6633,1.967,7.53,1111122 
LUMCON,ioos:station:LUMCON:101:1,2019-01-02T03:00:00Z,29.2533,-90.6633,1.957,7.41,1111122 
LUMCON,ioos:station:LUMCON:101:1,2019-01-02T03:15:00Z,29.2533,-90.6633,1.954,7.49,1111122 
LUMCON,ioos:station:LUMCON:101:1,2019-01-02T03:30:00Z,29.2533,-90.6633,1.946,7.74,1111122 
LUMCON,ioos:station:LUMCON:101:1,2019-01-02T03:45:00Z,29.2533,-90.6633,1.934,7.87,1111122 
LUMCON,ioos:station:LUMCON:101:1,2019-01-02T04:00:00Z,29.2533,-90.6633,1.924,7.71,1111122 
LUMCON,ioos:station:LUMCON:101:1,2019-01-02T04:15:00Z,29.2533,-90.6633,1.925,7.53,1111122 
LUMCON,ioos:station:LUMCON:101:1,2019-01-02T04:30:00Z,29.2533,-90.6633,1.913,7.58,1111122 
LUMCON,ioos:station:LUMCON:101:1,2019-01-02T04:45:00Z,29.2533,-90.6633,1.911,7.54,1111122 
LUMCON,ioos:station:LUMCON:101:1,2019-01-02T05:00:00Z,29.2533,-90.6633,1.912,7.43,1111122 
LUMCON,ioos:station:LUMCON:101:1,2019-01-02T05:15:00Z,29.2533,-90.6633,1.899,7.39,1111122 
LUMCON,ioos:station:LUMCON:101:1,2019-01-02T05:30:00Z,29.2533,-90.6633,1.885,7.34,1111122 
LUMCON,ioos:station:LUMCON:101:1,2019-01-02T05:45:00Z,29.2533,-90.6633,1.876,7.35,1111122 
LUMCON,ioos:station:LUMCON:101:1,2019-01-02T06:00:00Z,29.2533,-90.6633,1.865,7.38,1111122 
LUMCON,ioos:station:LUMCON:101:1,2019-01-02T06:15:00Z,29.2533,-90.6633,1.858,7.25,1111122 
LUMCON,ioos:station:LUMCON:101:1,2019-01-02T06:30:00Z,29.2533,-90.6633,1.851,7.18,1111122 
LUMCON,ioos:station:LUMCON:101:1,2019-01-02T06:45:00Z,29.2533,-90.6633,1.843,7.07,1111122 
LUMCON,ioos:station:LUMCON:101:1,2019-01-02T07:00:00Z,29.2533,-90.6633,1.835,7.04,1111122 
LUMCON,ioos:station:LUMCON:101:1,2019-01-02T07:15:00Z,29.2533,-90.6633,1.818,6.95,1111122 
LUMCON,ioos:station:LUMCON:101:1,2019-01-02T07:30:00Z,29.2533,-90.6633,1.801,6.88,1111122 
LUMCON,ioos:station:LUMCON:101:1,2019-01-02T07:45:00Z,29.2533,-90.6633,1.793,6.82,1111122 
LUMCON,ioos:station:LUMCON:101:1,2019-01-02T08:00:00Z,29.2533,-90.6633,1.784,6.85,1111122 
LUMCON,ioos:station:LUMCON:101:1,2019-01-02T08:15:00Z,29.2533,-90.6633,1.781,6.8,1111122 
LUMCON,ioos:station:LUMCON:101:1,2019-01-02T08:30:00Z,29.2533,-90.6633,1.775,6.77,1111122 
LUMCON,ioos:station:LUMCON:101:1,2019-01-02T08:45:00Z,29.2533,-90.6633,1.766,6.77,1111122 
LUMCON,ioos:station:LUMCON:101:1,2019-01-02T09:00:00Z,29.2533,-90.6633,1.758,6.79,1111122 
LUMCON,ioos:station:LUMCON:101:1,2019-01-02T09:15:00Z,29.2533,-90.6633,1.756,6.87,1111122 
LUMCON,ioos:station:LUMCON:101:1,2019-01-02T09:30:00Z,29.2533,-90.6633,1.742,6.89,1111122 
LUMCON,ioos:station:LUMCON:101:1,2019-01-02T09:45:00Z,29.2533,-90.6633,1.726,6.87,1111122 
LUMCON,ioos:station:LUMCON:101:1,2019-01-02T10:00:00Z,29.2533,-90.6633,1.707,7.0,1111122 
LUMCON,ioos:station:LUMCON:101:1,2019-01-02T10:15:00Z,29.2533,-90.6633,1.7,6.88,1111122 
LUMCON,ioos:station:LUMCON:101:1,2019-01-02T10:30:00Z,29.2533,-90.6633,1.697,6.99,1111122 
LUMCON,ioos:station:LUMCON:101:1,2019-01-02T10:45:00Z,29.2533,-90.6633,1.697,6.86,1111122 
LUMCON,ioos:station:LUMCON:101:1,2019-01-02T11:00:00Z,29.2533,-90.6633,1.69,6.9,1111122 
LUMCON,ioos:station:LUMCON:101:1,2019-01-02T11:15:00Z,29.2533,-90.6633,1.674,6.85,1111122 
LUMCON,ioos:station:LUMCON:101:1,2019-01-02T11:30:00Z,29.2533,-90.6633,1.673,6.86,1111122 
LUMCON,ioos:station:LUMCON:101:1,2019-01-02T11:45:00Z,29.2533,-90.6633,1.662,6.88,1111122 
LUMCON,ioos:station:LUMCON:101:1,2019-01-02T12:00:00Z,29.2533,-90.6633,1.654,6.85,1111122 
LUMCON,ioos:station:LUMCON:101:1,2019-01-02T12:15:00Z,29.2533,-90.6633,1.656,6.89,1111122 
LUMCON,ioos:station:LUMCON:101:1,2019-01-02T12:30:00Z,29.2533,-90.6633,1.642,6.94,1111122 
LUMCON,ioos:station:LUMCON:101:1,2019-01-02T12:45:00Z,29.2533,-90.6633,1.635,6.79,1111122 
LUMCON,ioos:station:LUMCON:101:1,2019-01-02T13:00:00Z,29.2533,-90.6633,1.641,6.86,1111122 
LUMCON,ioos:station:LUMCON:101:1,2019-01-02T13:15:00Z,29.2533,-90.6633,1.638,6.79,1111122 
LUMCON,ioos:station:LUMCON:101:1,2019-01-02T13:30:00Z,29.2533,-90.6633,1.653,6.72,1111122 
LUMCON,ioos:station:LUMCON:101:1,2019-01-02T13:45:00Z,29.2533,-90.6633,1.654,6.43,1111122 
LUMCON,ioos:station:LUMCON:101:1,2019-01-02T14:00:00Z,29.2533,-90.6633,1.664,6.68,1111122 
LUMCON,ioos:station:LUMCON:101:1,2019-01-02T14:15:00Z,29.2533,-90.6633,1.662,6.41,1111122 
LUMCON,ioos:station:LUMCON:101:1,2019-01-02T14:30:00Z,29.2533,-90.6633,1.659,6.18,1111122 
LUMCON,ioos:station:LUMCON:101:1,2019-01-02T14:45:00Z,29.2533,-90.6633,1.648,6.28,1111122 
LUMCON,ioos:station:LUMCON:101:1,2019-01-02T15:00:00Z,29.2533,-90.6633,1.655,6.27,1111122 
LUMCON,ioos:station:LUMCON:101:1,2019-01-02T15:15:00Z,29.2533,-90.6633,1.665,6.29,1111122 
LUMCON,ioos:station:LUMCON:101:1,2019-01-02T15:30:00Z,29.2533,-90.6633,1.682,6.51,1111122 
LUMCON,ioos:station:LUMCON:101:1,2019-01-02T15:45:00Z,29.2533,-90.6633,1.714,6.87,1111122 
LUMCON,ioos:station:LUMCON:101:1,2019-01-02T16:00:00Z,29.2533,-90.6633,1.722,6.95,1111122 
LUMCON,ioos:station:LUMCON:101:1,2019-01-02T16:15:00Z,29.2533,-90.6633,1.729,7.26,1111122 
LUMCON,ioos:station:LUMCON:101:1,2019-01-02T16:30:00Z,29.2533,-90.6633,1.739,7.45,1111122 
LUMCON,ioos:station:LUMCON:101:1,2019-01-02T16:45:00Z,29.2533,-90.6633,1.737,7.43,1111122 
LUMCON,ioos:station:LUMCON:101:1,2019-01-02T17:00:00Z,29.2533,-90.6633,1.743,7.41,1111122 
LUMCON,ioos:station:LUMCON:101:1,2019-01-02T17:15:00Z,29.2533,-90.6633,1.755,7.47,1111122 
LUMCON,ioos:station:LUMCON:101:1,2019-01-02T17:30:00Z,29.2533,-90.6633,1.764,7.33,1111122 
LUMCON,ioos:station:LUMCON:101:1,2019-01-02T17:45:00Z,29.2533,-90.6633,1.775,7.44,1111122 
LUMCON,ioos:station:LUMCON:101:1,2019-01-02T18:00:00Z,29.2533,-90.6633,1.799,7.51,1111122 
LUMCON,ioos:station:LUMCON:101:1,2019-01-02T18:15:00Z,29.2533,-90.6633,1.809,7.46,1111122 
LUMCON,ioos:station:LUMCON:101:1,2019-01-02T18:30:00Z,29.2533,-90.6633,1.828,7.55,1111122 
LUMCON,ioos:station:LUMCON:101:1,2019-01-02T18:45:00Z,29.2533,-90.6633,1.838,7.54,1111122 
LUMCON,ioos:station:LUMCON:101:1,2019-01-02T19:00:00Z,29.2533,-90.6633,1.844,7.71,1111122 
LUMCON,ioos:station:LUMCON:101:1,2019-01-02T19:15:00Z,29.2533,-90.6633,1.859,7.75,1111122 
LUMCON,ioos:station:LUMCON:101:1,2019-01-02T19:30:00Z,29.2533,-90.6633,1.866,7.82,1111122 
LUMCON,ioos:station:LUMCON:101:1,2019-01-02T19:45:00Z,29.2533,-90.6633,1.875,7.85,1111122 
LUMCON,ioos:station:LUMCON:101:1,2019-01-02T20:00:00Z,29.2533,-90.6633,1.892,8.01,1111122 
LUMCON,ioos:station:LUMCON:101:1,2019-01-02T20:15:00Z,29.2533,-90.6633,1.899,7.97,1111122 
LUMCON,ioos:station:LUMCON:101:1,2019-01-02T20:30:00Z,29.2533,-90.6633,1.912,7.96,1111122 
LUMCON,ioos:station:LUMCON:101:1,2019-01-02T20:45:00Z,29.2533,-90.6633,1.921,8.0,1111122 
LUMCON,ioos:station:LUMCON:101:1,2019-01-02T21:00:00Z,29.2533,-90.6633,1.927,8.2,1111122 
LUMCON,ioos:station:LUMCON:101:1,2019-01-02T21:15:00Z,29.2533,-90.6633,1.929,8.38,1111122 
LUMCON,ioos:station:LUMCON:101:1,2019-01-02T21:30:00Z,29.2533,-90.6633,1.936,8.43,1111122 
LUMCON,ioos:station:LUMCON:101:1,2019-01-02T21:45:00Z,29.2533,-90.6633,1.945,8.38,1111122 
LUMCON,ioos:station:LUMCON:101:1,2019-01-02T22:00:00Z,29.2533,-90.6633,1.959,8.53,1111122 
LUMCON,ioos:station:LUMCON:101:1,2019-01-02T22:15:00Z,29.2533,-90.6633,1.969,8.55,1111122 
LUMCON,ioos:station:LUMCON:101:1,2019-01-02T22:30:00Z,29.2533,-90.6633,1.974,8.5,1111122 
LUMCON,ioos:station:LUMCON:101:1,2019-01-02T22:45:00Z,29.2533,-90.6633,1.981,8.66,1111122 
LUMCON,ioos:station:LUMCON:101:1,2019-01-02T23:00:00Z,29.2533,-90.6633,1.994,8.58,1111122 
LUMCON,ioos:station:LUMCON:101:1,2019-01-02T23:15:00Z,29.2533,-90.6633,2.0,8.69,1111122 
LUMCON,ioos:station:LUMCON:101:1,2019-01-02T23:30:00Z,29.2533,-90.6633,2.011,8.66,1111122 
LUMCON,ioos:station:LUMCON:101:1,2019-01-02T23:45:00Z,29.2533,-90.6633,2.014,8.66,1111122 
LUMCON,ioos:station:LUMCON:101:1,2019-01-03T00:00:00Z,29.2533,-90.6633,2.02,8.77,1111122 
LUMCON,ioos:station:LUMCON:101:1,2019-01-03T00:15:00Z,29.2533,-90.6633,2.032,8.78,1111122 
LUMCON,ioos:station:LUMCON:101:1,2019-01-03T00:30:00Z,29.2533,-90.6633,2.048,8.82,1111122 
LUMCON,ioos:station:LUMCON:101:1,2019-01-03T00:45:00Z,29.2533,-90.6633,2.048,8.81,1111122 
LUMCON,ioos:station:LUMCON:101:1,2019-01-03T01:00:00Z,29.2533,-90.6633,2.056,8.78,1111122 
LUMCON,ioos:station:LUMCON:101:1,2019-01-03T01:15:00Z,29.2533,-90.6633,2.056,8.75,1111122 
LUMCON,ioos:station:LUMCON:101:1,2019-01-03T01:30:00Z,29.2533,-90.6633,2.055,8.6,1111122 
LUMCON,ioos:station:LUMCON:101:1,2019-01-03T01:45:00Z,29.2533,-90.6633,2.064,8.63,1111122 
LUMCON,ioos:station:LUMCON:101:1,2019-01-03T02:00:00Z,29.2533,-90.6633,2.07,8.55,1111122 
LUMCON,ioos:station:LUMCON:101:1,2019-01-03T02:15:00Z,29.2533,-90.6633,2.069,8.38,1111122 
LUMCON,ioos:station:LUMCON:101:1,2019-01-03T02:30:00Z,29.2533,-90.6633,2.065,8.31,1111122 
LUMCON,ioos:station:LUMCON:101:1,2019-01-03T02:45:00Z,29.2533,-90.6633,2.076,8.3,1111122 
LUMCON,ioos:station:LUMCON:101:1,2019-01-03T03:00:00Z,29.2533,-90.6633,2.063,8.35,1111122 
LUMCON,ioos:station:LUMCON:101:1,2019-01-03T03:15:00Z,29.2533,-90.6633,2.067,7.88,1111122 
LUMCON,ioos:station:LUMCON:101:1,2019-01-03T03:30:00Z,29.2533,-90.6633,2.073,8.2,1111122 
LUMCON,ioos:station:LUMCON:101:1,2019-01-03T03:45:00Z,29.2533,-90.6633,2.074,7.85,1111122 
LUMCON,ioos:station:LUMCON:101:1,2019-01-03T04:00:00Z,29.2533,-90.6633,2.071,7.85,1111122 
LUMCON,ioos:station:LUMCON:101:1,2019-01-03T04:15:00Z,29.2533,-90.6633,2.062,8.12,1111122 
LUMCON,ioos:station:LUMCON:101:1,2019-01-03T04:30:00Z,29.2533,-90.6633,2.046,8.03,1111122 
LUMCON,ioos:station:LUMCON:101:1,2019-01-03T04:45:00Z,29.2533,-90.6633,2.034,7.86,1111122 
LUMCON,ioos:station:LUMCON:101:1,2019-01-03T05:00:00Z,29.2533,-90.6633,2.017,7.87,1111122 
LUMCON,ioos:station:LUMCON:101:1,2019-01-03T05:15:00Z,29.2533,-90.6633,2.006,7.78,1111122 
LUMCON,ioos:station:LUMCON:101:1,2019-01-03T05:30:00Z,29.2533,-90.6633,1.994,7.64,1111122 
LUMCON,ioos:station:LUMCON:101:1,2019-01-03T05:45:00Z,29.2533,-90.6633,1.987,7.52,1111122 
LUMCON,ioos:station:LUMCON:101:1,2019-01-03T06:00:00Z,29.2533,-90.6633,1.979,7.42,1111122 
LUMCON,ioos:station:LUMCON:101:1,2019-01-03T06:15:00Z,29.2533,-90.6633,1.965,7.37,1111122 
LUMCON,ioos:station:LUMCON:101:1,2019-01-03T06:30:00Z,29.2533,-90.6633,1.954,7.28,1111122 
LUMCON,ioos:station:LUMCON:101:1,2019-01-03T06:45:00Z,29.2533,-90.6633,1.945,7.19,1111122 
LUMCON,ioos:station:LUMCON:101:1,2019-01-03T07:00:00Z,29.2533,-90.6633,1.932,7.12,1111122 
LUMCON,ioos:station:LUMCON:101:1,2019-01-03T07:15:00Z,29.2533,-90.6633,1.916,6.93,1111122 
LUMCON,ioos:station:LUMCON:101:1,2019-01-03T07:30:00Z,29.2533,-90.6633,1.904,6.66,1111122 
LUMCON,ioos:station:LUMCON:101:1,2019-01-03T07:45:00Z,29.2533,-90.6633,1.897,6.59,1111122 
LUMCON,ioos:station:LUMCON:101:1,2019-01-03T08:00:00Z,29.2533,-90.6633,1.884,6.55,1111122 
LUMCON,ioos:station:LUMCON:101:1,2019-01-03T08:15:00Z,29.2533,-90.6633,1.88,6.4,1111122 
LUMCON,ioos:station:LUMCON:101:1,2019-01-03T08:30:00Z,29.2533,-90.6633,1.863,6.27,1111122 
LUMCON,ioos:station:LUMCON:101:1,2019-01-03T08:45:00Z,29.2533,-90.6633,1.842,6.41,1111122 
LUMCON,ioos:station:LUMCON:101:1,2019-01-03T09:00:00Z,29.2533,-90.6633,1.826,6.37,1111122 
LUMCON,ioos:station:LUMCON:101:1,2019-01-03T09:15:00Z,29.2533,-90.6633,1.81,6.39,1111122 
LUMCON,ioos:station:LUMCON:101:1,2019-01-03T09:30:00Z,29.2533,-90.6633,1.789,6.26,1111122 
LUMCON,ioos:station:LUMCON:101:1,2019-01-03T09:45:00Z,29.2533,-90.6633,1.772,6.32,1111122 
LUMCON,ioos:station:LUMCON:101:1,2019-01-03T10:00:00Z,29.2533,-90.6633,1.751,6.45,1111122 
LUMCON,ioos:station:LUMCON:101:1,2019-01-03T10:15:00Z,29.2533,-90.6633,1.738,6.36,1111122 
LUMCON,ioos:station:LUMCON:101:1,2019-01-03T10:30:00Z,29.2533,-90.6633,1.724,6.45,1111122 
LUMCON,ioos:station:LUMCON:101:1,2019-01-03T10:45:00Z,29.2533,-90.6633,1.71,6.67,1111122 
LUMCON,ioos:station:LUMCON:101:1,2019-01-03T11:00:00Z,29.2533,-90.6633,1.699,6.65,1111122 
LUMCON,ioos:station:LUMCON:101:1,2019-01-03T11:15:00Z,29.2533,-90.6633,1.685,6.67,1111122 
LUMCON,ioos:station:LUMCON:101:1,2019-01-03T11:30:00Z,29.2533,-90.6633,1.673,6.69,1111122 
LUMCON,ioos:station:LUMCON:101:1,2019-01-03T11:45:00Z,29.2533,-90.6633,1.667,6.79,1111122 
LUMCON,ioos:station:LUMCON:101:1,2019-01-03T12:00:00Z,29.2533,-90.6633,1.656,6.8,1111122 
LUMCON,ioos:station:LUMCON:101:1,2019-01-03T12:15:00Z,29.2533,-90.6633,1.647,6.75,1111122 
LUMCON,ioos:station:LUMCON:101:1,2019-01-03T12:30:00Z,29.2533,-90.6633,1.634,6.77,1111122 
LUMCON,ioos:station:LUMCON:101:1,2019-01-03T12:45:00Z,29.2533,-90.6633,1.626,6.78,1111122 
LUMCON,ioos:station:LUMCON:101:1,2019-01-03T13:00:00Z,29.2533,-90.6633,1.613,6.84,1111122 
LUMCON,ioos:station:LUMCON:101:1,2019-01-03T13:15:00Z,29.2533,-90.6633,1.607,6.8,1111122 
LUMCON,ioos:station:LUMCON:101:1,2019-01-03T13:30:00Z,29.2533,-90.6633,1.598,6.84,1111122 
LUMCON,ioos:station:LUMCON:101:1,2019-01-03T13:45:00Z,29.2533,-90.6633,1.591,6.87,1111122 
LUMCON,ioos:station:LUMCON:101:1,2019-01-03T14:00:00Z,29.2533,-90.6633,1.587,6.97,1111122 
LUMCON,ioos:station:LUMCON:101:1,2019-01-03T14:15:00Z,29.2533,-90.6633,1.581,6.94,1111122 
LUMCON,ioos:station:LUMCON:101:1,2019-01-03T14:30:00Z,29.2533,-90.6633,1.572,6.94,1111122 
LUMCON,ioos:station:LUMCON:101:1,2019-01-03T14:45:00Z,29.2533,-90.6633,1.575,6.98,1111122 
LUMCON,ioos:station:LUMCON:101:1,2019-01-03T15:00:00Z,29.2533,-90.6633,1.57,6.99,1111122 
LUMCON,ioos:station:LUMCON:101:1,2019-01-03T15:15:00Z,29.2533,-90.6633,1.568,7.12,1111122 
LUMCON,ioos:station:LUMCON:101:1,2019-01-03T15:30:00Z,29.2533,-90.6633,1.577,7.04,1111122 
LUMCON,ioos:station:LUMCON:101:1,2019-01-03T15:45:00Z,29.2533,-90.6633,1.591,7.02,1111122 
LUMCON,ioos:station:LUMCON:101:1,2019-01-03T16:00:00Z,29.2533,-90.6633,1.599,6.94,1111122 
LUMCON,ioos:station:LUMCON:101:1,2019-01-03T16:15:00Z,29.2533,-90.6633,1.61,6.94,1111122 
LUMCON,ioos:station:LUMCON:101:1,2019-01-03T16:30:00Z,29.2533,-90.6633,1.62,6.92,1111122 
LUMCON,ioos:station:LUMCON:101:1,2019-01-03T16:45:00Z,29.2533,-90.6633,1.624,7.0,1111122 
LUMCON,ioos:station:LUMCON:101:1,2019-01-03T17:00:00Z,29.2533,-90.6633,1.628,7.06,1111122 
LUMCON,ioos:station:LUMCON:101:1,2019-01-03T17:15:00Z,29.2533,-90.6633,1.641,7.2,1111122 
LUMCON,ioos:station:LUMCON:101:1,2019-01-03T17:30:00Z,29.2533,-90.6633,1.663,7.26,1111122 